ORBCOMM-X 1 21576U 91050C 25260.16539709 .00000262 00000+0 90612-4 0 9992 2 21576 98.3349 324.8558 0002376 265.7390 94.3529 14.43326152795389 ORBCOMM FM01 1 23545U 95017A 25260.27428257 .00006270 00000+0 63990-3 0 9997 2 23545 69.9621 204.3435 0004338 220.6809 139.4023 14.91085515626230 ORBCOMM FM02 1 23546U 95017B 25260.02331365 .00009182 00000+0 90695-3 0 9991 2 23546 69.9626 224.0304 0005377 212.9625 147.1196 14.92200141625853 ORBCOMM FM08 1 25112U 97084A 25260.07302714 .00001197 00000+0 37249-3 0 9993 2 25112 45.0138 286.6869 0006992 332.4387 27.6093 14.46088121454673 ORBCOMM FM10 1 25113U 97084B 25260.13707359 .00001095 00000+0 34566-3 0 9991 2 25113 45.0151 288.9240 0006589 301.6428 58.3781 14.45862315629823 ORBCOMM FM11 1 25114U 97084C 25259.60473410 .00001022 00000+0 32687-3 0 9992 2 25114 45.0137 292.2792 0007327 302.1678 57.8462 14.45609412454702 ORBCOMM FM12 1 25115U 97084D 25259.77325184 .00001078 00000+0 34247-3 0 9990 2 25115 45.0144 291.2115 0006521 298.3527 61.6666 14.45627266454529 ORBCOMM FM09 1 25116U 97084E 25259.46810544 .00000954 00000+0 30869-3 0 9994 2 25116 45.0149 293.7019 0007900 291.8148 68.1863 14.45489360454683 ORBCOMM FM05 1 25117U 97084F 25260.10103284 .00001139 00000+0 35546-3 0 9997 2 25117 45.0146 286.6582 0004357 292.0895 67.9493 14.46204671453914 ORBCOMM FM06 1 25118U 97084G 25259.49187866 .00001300 00000+0 39892-3 0 9994 2 25118 45.0140 289.2192 0003449 281.9271 230.9541 14.46351007454745 ORBCOMM FM07 1 25119U 97084H 25260.09743507 .00001162 00000+0 36060-3 0 9993 2 25119 45.0134 287.0728 0005192 293.4066 66.6240 14.46360829454828 ORBCOMM FM03 1 25158U 98007B 25260.02880252 .00000791 00000+0 32266-3 0 9995 2 25158 107.9650 324.2992 0042786 88.8155 271.7887 14.34691315437218 ORBCOMM FM04 1 25159U 98007C 25260.13670395 .00000758 00000+0 31003-3 0 9994 2 25159 107.9635 327.8032 0038513 85.9183 274.6357 14.34937300437411 ORBCOMM FM17 1 25413U 98046A 25260.21526961 .00000764 00000+0 31336-3 0 9994 2 25413 44.9938 183.2295 0004426 321.6584 38.3948 14.35254054416390 ORBCOMM FM18 1 25414U 98046B 25260.01348771 .00000900 00000+0 33614-3 0 9997 2 25414 44.9922 99.1084 0004935 33.4064 326.7096 14.38770364417479 ORBCOMM FM19 1 25415U 98046C 25260.07007517 .00000924 00000+0 34524-3 0 9991 2 25415 44.9935 100.9821 0003706 30.5704 115.6707 14.38583118417437 ORBCOMM FM20 1 25416U 98046D 25260.00829087 .00000650 00000+0 26292-3 0 9998 2 25416 44.9936 106.3777 0001389 51.0948 309.0023 14.37371118417470 ORBCOMM FM16 1 25417U 98046E 25260.10215197 .00001018 00000+0 37142-3 0 9996 2 25417 44.9930 96.2787 0004922 49.7696 310.3583 14.39132512417496 ORBCOMM FM15 1 25418U 98046F 25259.96230503 .00000876 00000+0 32858-3 0 9997 2 25418 44.9962 102.3643 0004662 48.3388 311.7859 14.38773332417464 ORBCOMM FM14 1 25419U 98046G 25259.95664506 .00000920 00000+0 34003-3 0 9995 2 25419 44.9952 100.3602 0003426 46.3315 313.7817 14.39150551417438 ORBCOMM FM13 1 25420U 98046H 25260.01256899 .00000817 00000+0 31514-3 0 9997 2 25420 44.9967 108.9768 0005503 25.1387 334.9728 14.37862143416457 ORBCOMM FM21 1 25475U 98053A 25260.24881325 .00000695 00000+0 27694-3 0 9996 2 25475 45.0077 193.4709 0003294 326.0367 34.0270 14.37510165410493 ORBCOMM FM22 1 25476U 98053B 25260.14848672 .00000965 00000+0 35831-3 0 9996 2 25476 45.0070 188.0440 0005031 328.7336 31.3213 14.38597445410512 ORBCOMM FM23 1 25477U 98053C 25260.16782867 .00000886 00000+0 33873-3 0 9998 2 25477 45.0077 195.8427 0004330 322.8630 37.1918 14.37713909410637 ORBCOMM FM24 1 25478U 98053D 25260.20798048 .00000896 00000+0 33811-3 0 9995 2 25478 45.0074 192.7218 0004076 329.1468 30.9140 14.38299982410690 ORBCOMM FM25 1 25479U 98053E 25260.18116687 .00001017 00000+0 37769-3 0 9998 2 25479 45.0064 191.1331 0006291 340.3660 19.6946 14.38269758410987 ORBCOMM FM26 1 25480U 98053F 25260.18423632 .00000748 00000+0 29564-3 0 9995 2 25480 45.0062 188.2483 0007778 355.7696 4.3085 14.37298122410882 ORBCOMM FM27 1 25481U 98053G 25260.16686543 .00000997 00000+0 37103-3 0 9990 2 25481 45.0048 191.3696 0002609 332.0581 28.0127 14.38302121410917 ORBCOMM FM28 1 25482U 98053H 25260.05419976 .00000697 00000+0 27250-3 0 9992 2 25482 45.0047 129.2787 0005438 37.4024 322.7202 14.38468010411581 ORBCOMM FM30 1 25980U 99065A 25259.74670547 .00000761 00000+0 29898-3 0 9998 2 25980 45.0331 16.2802 0006402 122.4556 237.6913 14.37466805347625 ORBCOMM FM31 1 25981U 99065B 25260.28002459 .00000678 00000+0 27212-3 0 9996 2 25981 45.0247 7.2235 0004599 158.4889 201.6153 14.37397894347252 ORBCOMM FM32 1 25982U 99065C 25260.03986229 .00000769 00000+0 30797-3 0 9999 2 25982 45.0170 25.5553 0006861 141.9824 218.1509 14.36451446347806 ORBCOMM FM33 1 25983U 99065D 25258.76383316 .00000680 00000+0 25806-3 0 9992 2 25983 45.0284 288.2732 0007993 175.9714 184.1201 14.40172011349123 ORBCOMM FM36 1 25984U 99065E 25260.02722192 .00000980 00000+0 36537-3 0 9990 2 25984 45.0409 15.5990 0001453 67.4375 292.6627 14.38332066347640 ORBCOMM FM35 1 25985U 99065F 25260.28184630 .00000836 00000+0 32503-3 0 9997 2 25985 45.0411 20.1619 0004609 156.0811 204.0253 14.37280016348032 ORBCOMM FM34 1 25986U 99065G 25260.03846751 .00000748 00000+0 29603-3 0 9999 2 25986 45.0406 21.7692 0003471 108.7527 251.3699 14.37279411348114 ORBCOMM FM38 1 33060U 08031A 25260.00632990 .00001696 00000+0 24033-3 0 9994 2 33060 48.4397 237.5680 0004448 70.2167 289.9228 14.81655795928362 ORBCOMM FM41 1 33061U 08031B 25259.73032310 .00001588 00000+0 22899-3 0 9991 2 33061 48.4432 246.9824 0003818 49.5970 120.8750 14.81227458927800 ORBCOMM FM29 1 33062U 08031C 25260.02027855 .00001632 00000+0 23399-3 0 9990 2 33062 48.4384 253.2949 0005445 53.0110 344.5310 14.81343985927766 ORBCOMM FM39 1 33063U 08031D 25260.06751459 .00001240 00000+0 19063-3 0 9997 2 33063 48.4399 278.3628 0006593 24.0377 336.0845 14.79856820927407 ORBCOMM FM37 1 33064U 08031E 25260.03020611 .00001275 00000+0 19434-3 0 9994 2 33064 48.4392 266.9182 0004958 42.3458 348.0055 14.80064065927652 ORBCOMM FM40 1 33065U 08031F 25260.06931078 .00001879 00000+0 25883-3 0 9991 2 33065 48.4411 249.2044 0005979 59.1582 329.1029 14.82404421927796 VESSELSAT 1 1 37840U 11058C 25260.15168936 .00000363 00000+0 53241-4 0 9991 2 37840 19.9614 257.4059 0013802 117.9847 242.1955 14.11370061719310 ORBCOMM FM109 1 40086U 14040A 25260.13411296 .00000411 00000+0 12449-3 0 9997 2 40086 47.0035 302.0056 0001109 2.4455 357.6436 14.58301584594489 ORBCOMM FM107 1 40087U 14040B 25260.15801886 .00000448 00000+0 13231-3 0 9998 2 40087 47.0052 302.8196 0001746 305.1856 54.8866 14.58383824594566 ORBCOMM FM106 1 40088U 14040C 25260.01709029 .00000838 00000+0 17080-3 0 9999 2 40088 47.0596 118.2157 0016465 134.5307 225.6932 14.69646025596982 ORBCOMM FM111 1 40089U 14040D 25260.23057819 .00002467 00000+0 29570-3 0 9994 2 40089 47.0019 314.8496 0031024 273.7637 85.9713 14.86806335603921 ORBCOMM FM104 1 40090U 14040E 25260.24779597 .00000477 00000+0 14310-3 0 9996 2 40090 47.0067 337.1158 0017306 265.1212 94.7697 14.56773785594040 ORBCOMM FM103 1 40091U 14040F 25259.86138447 .00000451 00000+0 13319-3 0 9996 2 40091 47.0057 304.8234 0002281 313.3665 46.7030 14.58301675577484 ORBCOMM FM114 1 41179U 15081A 25260.22291348 .00000540 00000+0 15201-3 0 9993 2 41179 47.0022 212.1118 0001809 24.4499 335.6472 14.58337821517909 ORBCOMM FM119 1 41180U 15081B 25260.00963047 .00000465 00000+0 13613-3 0 9994 2 41180 46.9997 122.4576 0000649 117.4247 242.6705 14.58273473519120 ORBCOMM FM105 1 41181U 15081C 25260.09877782 .00000158 00000+0 89105-4 0 9993 2 41181 47.0007 135.9312 0001867 356.6010 3.4858 14.45288632514047 ORBCOMM FM110 1 41182U 15081D 25260.21508067 .00000616 00000+0 16824-3 0 9991 2 41182 47.0012 211.6849 0003125 272.7639 87.2889 14.58348808517778 ORBCOMM FM118 1 41183U 15081E 25260.24738090 .00000513 00000+0 14630-3 0 9995 2 41183 47.0034 211.7889 0003113 233.6909 126.3690 14.58328009517889 ORBCOMM FM112 1 41184U 15081F 25259.97962610 .00000641 00000+0 17334-3 0 9997 2 41184 46.9984 121.6695 0001227 34.3686 325.7279 14.58388630519064 ORBCOMM FM113 1 41185U 15081G 25259.88805806 .00000621 00000+0 16915-3 0 9993 2 41185 46.9999 122.4415 0000931 51.9983 308.0987 14.58382764519035 ORBCOMM FM115 1 41186U 15081H 25260.13592040 .00000550 00000+0 14144-3 0 9990 2 41186 46.9994 322.2020 0000677 213.3185 146.7659 14.62652985521236 ORBCOMM FM108 1 41187U 15081J 25260.05169617 .00000631 00000+0 17162-3 0 9995 2 41187 47.0062 33.0916 0001925 0.8159 359.2730 14.58303469520205 ORBCOMM FM117 1 41188U 15081K 25259.67537687 .00000598 00000+0 16448-3 0 9996 2 41188 47.0024 33.6010 0002385 15.3381 344.7577 14.58298853520190 ORBCOMM FM116 1 41189U 15081L 25260.00241120 .00000658 00000+0 17709-3 0 9998 2 41189 47.0015 121.8667 0001971 234.2929 125.7773 14.58382341519053